[Iaude] MPEC C121: 2024 CL2 [a=1.58,e=0.36,i=5.6,H=23.8]
    mpec at cfa.harvard.edu 
    mpec at cfa.harvard.edu
       
    Sun Feb 11 16:38:09 EST 2024
    
    
  
M.P.E.C. 2024-C121                            Issued 2024 February 11, 21:36 UT
     The Minor Planet Electronic Circulars contain information on unusual
         minor planets, routine data on comets and natural satellites,
         and occasional editorial announcements.  They are published
    on behalf of Division F of the International Astronomical Union by the
          Minor Planet Center, Smithsonian Astrophysical Observatory,
                          Cambridge, MA 02138, U.S.A.
			  
             Prepared using the Tamkin Foundation Computer Network
                              MPC at CFA.HARVARD.EDU
            URL https://www.minorplanetcenter.net/    ISSN 1523-6714
                                    2024 CL2                                    
Observations:
     K24C02L* C2024 02 10.35619010 13 54.048+17 33 27.16         20.43wXEC121F52
     K24C02L  C2024 02 10.36980810 13 54.468+17 32 56.30         20.67wXEC121F52
     K24C02L  C2024 02 10.38346310 13 54.868+17 32 25.07         20.44wXEC121F52
     K24C02L  C2024 02 10.39708610 13 55.250+17 31 53.91         20.42wXEC121F52
     K24C02L  C2024 02 10.53049910 13 58.638+17 26 40.18         20.15GVEC121F52
     K24C02L  C2024 02 10.53131810 13 58.663+17 26 38.24         20.06GVEC121F52
     K24C02L |C2024 02 11.20637010 14 35.690+17 00 12.20         20.0 GVEC121807
     K24C02L |C2024 02 11.20857010 14 35.750+17 00 06.80         20.2 GVEC121807
     K24C02L |C2024 02 11.21077010 14 35.810+17 00 01.20         20.0 GVEC121807
     K24C02L KB2024 02 11.88359310 15 13.55 +16 30 00.4          19.5 GXEC121958
     K24C02L KB2024 02 11.88565910 15 13.58 +16 29 55.4          20.0 GXEC121958
     K24C02L KB2024 02 11.88772710 15 13.74 +16 29 50.7          19.4 GXEC121958
Observer details:
807 Cerro Tololo Observatory, La Serena.  Observers T. Linder, R. Holmes.
    0.61-m f/11 Ritchey-Chretien + CCD.
958 Observatoire de Dax.  Observer P. Dupouy.  0.50-m f/4.5 Reflector + CMO.
F52 Pan-STARRS 2, Haleakala.  Observers J. Herman, T. Lowe, P. Minguez, A.
    Schultz, I. Smith.  Measurers K. Chambers, T. de Boer, J. Fairlamb, H.
    Gao, M. Huber, C.-C. Lin, E. Magnier, Y. Ramanjooloo, R. Wainscoat, R.
    Weryk.  1.8-m Ritchey-Chretien + CCD.
Orbital elements:
2024 CL2                                                 Earth MOID = 0.0486 AU
Epoch 2023 Sept. 13.0 TT = JDT 2460200.5                MPC                     
M 260.67566              (2000.0)            P               Q                  
n   0.49634977     Peri.  224.87639     -0.96700596     +0.24987572             
a   1.5798317      Node   329.49188     -0.19757669     -0.85855398             
e   0.3637253      Incl.    5.60857     -0.16081957     -0.44771329             
P   1.99           H   23.82          G   0.15           U   9                  
Residuals in seconds of arc
240210 F52  0.1+  0.0     240210 F52  0.0   0.0     240211 807  0.0   0.1-
240210 F52  0.1+  0.0     240210 F52  0.0   0.0     240211 958  0.3+  0.3-
240210 F52  0.1+  0.1-    240211 807  0.0   0.0     240211 958  0.5-  0.1-
240210 F52  0.1+  0.0     240211 807  0.0   0.1+    240211 958  0.6+  0.5+
Ephemeris:
2024 CL2                 a,e,i = 1.58, 0.36, 6                   q = 1.0052
Date    TT    R. A. (2000) Decl.     Delta      r    Elong.  Phase     V
2024 01 12    09 48 21.9 +25 49 09   0.3169  1.2642   148.3    24.1    23.0
...
2024 01 27    10 02 23.0 +23 26 49   0.2158  1.1885   158.9    17.3    21.8
...
2024 02 04    10 08 45.1 +20 52 49   0.1703  1.1508   164.8    13.0    21.0
...
2024 02 10    10 13 33.2 +17 47 19   0.1398  1.1244   169.4     9.3    20.4
2024 02 11    10 14 24.3 +17 07 56   0.1350  1.1201   170.2     8.7    20.3
2024 02 12    10 15 16.9 +16 25 34   0.1303  1.1159   171.0     8.0    20.2
...
2024 02 18    10 21 26.1 +10 52 08   0.1042  1.0920   175.2     4.3    19.5
...
2024 02 26    10 34 18.7 -02 03 20   0.07509 1.0636   168.8    10.4    19.0
...
2024 03 12    11 52 29.8 -53 04 52   0.05348 1.0241   123.4    54.1    19.5
A. U. Tomatic                (C) Copyright 2024 MPC           M.P.E.C. 2024-C121
    
    
More information about the Iaude
mailing list